Regional Weather Roundup
Issued by NWS

Home | Current Version | Previous Version | Text Only | Print | Product List | Glossary Off
Versions: 1 2 3 4 5 6 7 8 9 10 11 12 13 14 15 16 17 18 19 20 21 22 23 24 25 26 27 28 29 30 31 32 33 34 35 36 37 38 39 40 41 42 43 44 45 46 47 48 49 50

000
ASUS43 KMKX 261411
RWRWI

WISCONSIN REGIONAL WEATHER ROUNDUP
NATIONAL WEATHER SERVICE MILWAUKEE/SULLIVAN WI
800 AM CST FRI DEC 26 2014

NOTE: "FAIR" INDICATES FEW OR NO CLOUDS BELOW 12,000 FEET WITH NO
SIGNIFICANT WEATHER AND/OR OBSTRUCTIONS TO VISIBILITY.

WIZ001-002-006>008-014>016-023>028-261500-
NORTHWEST WISCONSIN

CITY           SKY/WX    TMP DP  RH WIND       PRES   REMARKS
SUPERIOR ARPT  FLURRIES  30  25  82 N3        30.02R
ASHLAND        CLOUDY    30  28  92 N9        29.98F WCI  22
HAYWARD        CLOUDY    30  27  88 N3        29.95R
SIREN          CLOUDY    30  29  95 N3        29.98R
CUMBERLAND     CLOUDY    30  28  93 N6        29.94R WCI  24
RICE LAKE      CLOUDY    32  29  91 N8        29.94S WCI  24
CHETEK         CLOUDY    32  30  92 NW3       29.93R
LADYSMITH      CLOUDY    32  30  93 N6        29.93S WCI  26
EAU CLAIRE     CLOUDY    32  29  88 NE5       29.92R WCI  27
MENOMONIE      CLOUDY    33  31  94 N6        29.92R FOG     WCI  27
NEW RICHMOND   CLOUDY    32  31  98 N6        29.95R WCI  26
OSCEOLA        CLOUDY    32  32 100 N5        30.00R WCI  27
$$

WIZ003>005-009-010-017-018-261500-
NORTH CENTRAL WISCONSIN

CITY           SKY/WX    TMP DP  RH WIND       PRES   REMARKS
MANITOWISH WTR CLOUDY    28  28 100 CALM      29.91S
ARBOR VITAE    CLOUDY    32  30  94 CALM      29.91S FOG
WOODRUFF       CLOUDY    32  30  94 CALM      29.91S FOG
RHINELANDER    CLOUDY    29  28  96 NE5       29.91S WCI  24
EAGLE RIVER    CLOUDY    29  29 100 CALM      29.91S FOG
LAND O LAKES   CLOUDY    28  28 100 CALM      29.92S FOG
PHILLIPS       CLOUDY    29  28  95 NE7       29.90S WCI  22
TOMAHAWK       CLOUDY    29  28  96 CALM      29.91S FOG
MEDFORD        CLOUDY    29  28  97 NE6       29.90R FOG     WCI  22
MERRILL        CLOUDY    29  29 100 E3        29.91R FOG
$$

WIZ029-030-035-036-043>047-261500-
CENTRAL WISCONSIN

CITY           SKY/WX    TMP DP  RH WIND       PRES   REMARKS
WAUSAU         FOG       27  27 100 E5        29.90R VSB 1/4 WCI  22
MOSINEE        FOG       25  25 100 E3        29.92R VSB 1/8
MARSHFIELD     FOG       26  25  96 CALM      29.90R VSB 1/4
STEVENS POINT  FOG       22  22  98 CALM      29.93R VSB 1/2
WAUPACA        FOG       28  26  96 CALM      29.93S VSB<1/4
WAUTOMA        FOG       25  25 100 CALM      29.94R VSB 3/4
WISC RAPIDS    MOCLDY    24  22  91 CALM      29.93R FOG
CAMP DOUGLAS   FOG       21  21 100 CALM      29.92R VSB 1/4
$$

WIZ011>013-019>022-031-037>040-048>050-261500-
NORTHEAST WISCONSIN

CITY           SKY/WX    TMP DP  RH WIND       PRES   REMARKS
ANTIGO         FOG       28  28 100 CALM      29.92R VSB<1/4
SHAWANO        FOG       28  27  94 CALM      29.95R VSB<1/4
OCONTO         PTCLDY    24  24 100 CALM      29.95S
STURGEON BAY   CLOUDY    34  30  86 S6        29.97R WCI  29
GREEN BAY      FOG       30  29  96 CALM      29.95S VSB 1/2
MANITOWOC      PTCLDY    30  28  93 CALM      29.96S FOG
APPLETON       PTCLDY    30  30 100 VRB3      29.94R
CLINTONVILLE     N/A     27  27 100 CALM      29.93S FOG
OSHKOSH        CLEAR     32  29  88 CALM      29.93S FOG
$$

WIZ032>034-041-042-053>061-261500-
SOUTHWEST WISCONSIN

CITY           SKY/WX    TMP DP  RH WIND       PRES   REMARKS
LA CROSSE      CLEAR     24  22  91 CALM      29.91R
SPARTA         CLEAR     22  21  98 CALM      29.92R
VIROQUA        CLEAR     32  32 100 SE7       29.89S WCI  25
BOSCOBEL       CLEAR     27  24  89 CALM      29.93R FOG
PRAIRIE DU CHI PTCLDY    31  29  92 CALM      29.91R
PLATTEVILLE    CLEAR     36  33  88 CALM      29.94R
$$

WIZ056-057-062-063-064-067-068-261500-
SOUTH CENTRAL WISCONSIN

CITY           SKY/WX    TMP DP  RH WIND       PRES   REMARKS
REEDSBURG      CLEAR     34  32  91 CALM      29.92R
BARABOO/DELLS  CLEAR     36  32  85 SW7       29.91R WCI  31
LONE ROCK      CLEAR     36  30  79 CALM      29.93R
MINERAL POINT  CLEAR     34  32  93 S5        29.92R WCI  30
MADISON        PTCLDY    36  32  85 S7        29.93S WCI  30
MIDDLETON      CLEAR     37  35  94 S5        29.93S WCI  33
WATERTOWN      CLEAR     34  34 100 S5        29.94S WCI  29
MONROE         CLEAR     34  34 100 S12       29.93R WCI  25
JANESVILLE     CLEAR     34  32  93 SE6       29.95S WCI  29
$$

WIZ051-052-058>065-066-070>072-261500-
SOUTHEAST WISCONSIN

CITY           SKY/WX    TMP DP  RH WIND       PRES   REMARKS
MILWAUKEE      MOCLDY    38  32  79 SW10      29.97R WCI  31
WAUKESHA       CLEAR     36  32  87 S7        29.96S WCI  30
MILWAUKEE/TIMM CLEAR     36  32  87 S6        29.97R WCI  31
RACINE         PTCLDY    38  32  79 SW9       29.99R WCI  31
BURLINGTON     CLEAR     34  32  94 S8        29.97S WCI  27
KENOSHA        PTCLDY    37  33  85 SW10      29.98R WCI  30
FOND DU LAC    CLEAR     35  31  85 S7        29.93S WCI  29
SHEBOYGAN      PTCLDY    32  31  96 S3        29.95S
WEST BEND      PTCLDY    36  32  87 SW5       29.95S WCI  32
JUNEAU         CLEAR     33  32  98 SE6       29.95S WCI  27
$$

LSZ147-162-261500-
LAKE SUPERIOR

STATION/POSITION TIME  TEMP    WIND        PRES    WAVE
                       AIR SEA DIR/SP/G            HT/PER
                 (UTC) (F)     (DEG/KT/KT) (MB)    (FT/S)
DEVILS ISLAND    1400   32      20/ 13/ 14 1016.7R
PORT WING        1300   32      10/ 10/ 12 1016.3
SAXON HARBOR     1300   33        CALM     1015.2R
$$

LMZ867-665-643>646-261500-
LAKE MICHIGAN

STATION/POSITION TIME  TEMP    WIND        PRES    WAVE
                       AIR SEA DIR/SP/G            HT/PER
                 (UTC) (F)     (DEG/KT/KT) (MB)    (FT/S)
CHAMBERS ISLAND  1300   31      CALM  /  3 1014.6R
NORTHPORT PIER   1300   34      CALM  /  1 1014.6R
SISTER BAY       1343             CALM       N/A
ALGOMA LAKESHORE 1315             CALM       N/A
KEWAUNEE LAKESHO 1312   32      CALM  /  1 1013.5R
SHEBOYGAN LAKESH 1400   39 39  180/ 11/ 11 1015.0S
PORT WASHINGTON  1340   37     220/  2/  4 1015.2R
MILWAUKEE LAKESH 1300   40     220/ 10/ 12   N/A
KENOSHA   LAKESH 1400   38     220/ 11/ 16 1015.6R
$$

TC  - TEMPERATURE IN CELSIUS
VSB - VISIBILITY IN STATUTE MILES
WCI - WIND CHILL INDEX
HX  - HEAT INDEX




USA.gov is the U.S. government's official web portal to all federal, state and local government web resources and services.